MSC Leanne — 3EXH3 — position and weather

sailwx.info

Track history (hours):
 
Tides and Currents Weather Stations Pressure Air Temp Water Temp Dewpoint Dewpoint Depression Visibility Wind Speed Wind Dir Waves Ship Positions

MSC Leanne

Last reported at 2015-Mar-10 00:33 UTC. Time now 2015-Mar-29 13:49 UTC.
Position N 26°14' W 079°35'.
Warning: this ship's position is 19 days out of date.

Length 294 m; draft 9.7 m.

Type: Ship (hazmat cat A). MMSI: 357723000.

Date/timePositionNaut miles runAvg speedWind from/ knotsBaromVisibWave heightAir tempDewpointWater temp
2015-Mar-10 00:33N 26°14' W 079°35'2121.2
2015-Mar-09 23:33N 26°07' W 079°57'9 9.0
2015-Mar-09 22:33N 26°05' W 080°07'1 0.8
2015-Mar-09 21:23N 26°04' W 080°07'0 0.0
2015-Mar-09 20:26N 26°04' W 080°07'0 0.0
2015-Mar-09 19:26N 26°04' W 080°07'0 0.0
2015-Mar-09 18:26N 26°04' W 080°07'0 0.0
2015-Mar-09 17:29N 26°04' W 080°07'0 0.0
2015-Mar-09 16:29N 26°04' W 080°07'0 0.0
2015-Mar-09 15:29N 26°04' W 080°07'0 0.0
2015-Mar-09 14:32N 26°04' W 080°07'0 0.0
2015-Mar-09 13:32N 26°04' W 080°07'0 0.0
2015-Mar-09 12:32N 26°04' W 080°07'4 4.0
2015-Mar-09 11:33N 26°06' W 080°03'4 4.2
2015-Mar-09 10:33N 26°07' W 079°58'1313.4
2015-Mar-09 09:33N 26°20' W 079°58'2019.9
2015-Mar-09 08:33N 26°40' W 079°57'2019.7
2015-Mar-09 07:33N 26°60' W 079°58'34817.3
2015-Mar-08 11:28N 32°47' W 079°55'6 6.7
2015-Mar-08 10:33N 32°53' W 079°58'1 1.3
2015-Mar-08 09:32N 32°54' W 079°57'0 0.0
2015-Mar-08 07:20N 32°54' W 079°57'49610.6
2015-Mar-06 08:26N 39°34' W 073°53'1617.9
2015-Mar-06 07:33N 39°49' W 073°51'3712.3
2015-Mar-06 04:33N 40°26' W 073°50'1110.7
2015-Mar-06 03:33N 40°33' W 074°01'9 8.5
2015-Mar-06 02:33N 40°39' W 074°09'2 0.7
2015-Mar-05 23:22N 40°41' W 074°09'0 0.0
2015-Mar-05 22:31N 40°41' W 074°09'0 0.0
2015-Mar-05 20:28N 40°41' W 074°09'0 0.0
2015-Mar-05 19:31N 40°41' W 074°09'0 0.0
2015-Mar-05 18:22N 40°41' W 074°09'0 0.0
2015-Mar-05 17:28N 40°41' W 074°09'0 0.0
2015-Mar-05 16:28N 40°41' W 074°09'0 0.0
2015-Mar-05 15:28N 40°41' W 074°09'0 0.0
2015-Mar-05 14:28N 40°41' W 074°09'0 0.0
2015-Mar-05 13:16N 40°41' W 074°09'0 0.0
2015-Mar-05 12:28N 40°41' W 074°09'0 0.0
2015-Mar-05 11:28N 40°41' W 074°09'0 0.0
2015-Mar-05 10:28N 40°41' W 074°09'0 0.0
2015-Mar-05 09:10N 40°41' W 074°09'0 0.0
2015-Mar-05 08:22N 40°41' W 074°09'0 0.0
2015-Mar-05 07:28N 40°41' W 074°09'0 0.0
2015-Mar-05 06:28N 40°41' W 074°09'0 0.0
2015-Mar-05 05:28N 40°41' W 074°09'0 0.0
2015-Mar-05 04:31N 40°41' W 074°09'0 0.0
2015-Mar-05 03:28N 40°41' W 074°09'0 0.0
2015-Mar-05 02:28N 40°41' W 074°09'0 0.0
2015-Mar-05 01:28N 40°41' W 074°09'0 0.0
2015-Mar-04 23:28N 40°41' W 074°09'0 0.0
2015-Mar-04 22:28N 40°41' W 074°09'0 0.0
2015-Mar-04 21:28N 40°41' W 074°09'0 0.0
2015-Mar-04 19:28N 40°41' W 074°09'0 0.0
2015-Mar-04 18:28N 40°41' W 074°09'0 0.0
2015-Mar-04 17:28N 40°41' W 074°09'1 1.0
2015-Mar-04 16:34N 40°41' W 074°08'3 2.6
2015-Mar-04 15:33N 40°39' W 074°06'9 8.6
2015-Mar-04 14:33N 40°31' W 074°00'11 8.9
2015-Mar-04 13:19N 40°28' W 073°46'3 4.0
2015-Mar-04 12:29N 40°29' W 073°43'3 2.7
2015-Mar-04 11:32N 40°31' W 073°40'0 0.0
2015-Mar-04 10:29N 40°31' W 073°40'0 0.1
2015-Mar-04 09:32N 40°31' W 073°40'0 0.0
2015-Mar-04 08:23N 40°31' W 073°40'0 0.0
2015-Mar-04 06:29N 40°31' W 073°40'0 0.0
2015-Mar-04 00:32N 40°31' W 073°40'0 0.0
2015-Mar-03 21:11N 40°31' W 073°40'0 0.0
2015-Mar-03 20:32N 40°31' W 073°40'0 0.0
2015-Mar-03 19:27N 40°31' W 073°40'0 0.0
2015-Mar-03 18:26N 40°31' W 073°40'0 0.0
2015-Mar-03 17:32N 40°31' W 073°40'0 0.0
2015-Mar-03 13:13N 40°31' W 073°40'0 0.1
2015-Mar-03 12:26N 40°31' W 073°40'8 8.7
2015-Mar-03 11:33N 40°24' W 073°45'  
Track history (hours):
 
Tides and Currents Weather Stations Pressure Air Temp Water Temp Dewpoint Dewpoint Depression Visibility Wind Speed Wind Dir Waves Ship Positions

MSC Leanne

Last reported at 2015-Mar-10 00:33 UTC. Time now 2015-Mar-29 13:49 UTC.
Position N 26°14' W 079°35'.
Warning: this ship's position is 19 days out of date.

Length 294 m; draft 9.7 m.

Type: Ship (hazmat cat A). MMSI: 357723000.

Date/timePositionNaut miles runAvg speedWind from/ knotsBaromVisibWave heightAir tempDewpointWater temp
2015-Mar-10 00:33N 26°14' W 079°35'2121.2
2015-Mar-09 23:33N 26°07' W 079°57'9 9.0
2015-Mar-09 22:33N 26°05' W 080°07'1 0.8
2015-Mar-09 21:23N 26°04' W 080°07'0 0.0
2015-Mar-09 20:26N 26°04' W 080°07'0 0.0
2015-Mar-09 19:26N 26°04' W 080°07'0 0.0
2015-Mar-09 18:26N 26°04' W 080°07'0 0.0
2015-Mar-09 17:29N 26°04' W 080°07'0 0.0
2015-Mar-09 16:29N 26°04' W 080°07'0 0.0
2015-Mar-09 15:29N 26°04' W 080°07'0 0.0
2015-Mar-09 14:32N 26°04' W 080°07'0 0.0
2015-Mar-09 13:32N 26°04' W 080°07'0 0.0
2015-Mar-09 12:32N 26°04' W 080°07'4 4.0
2015-Mar-09 11:33N 26°06' W 080°03'4 4.2
2015-Mar-09 10:33N 26°07' W 079°58'1313.4
2015-Mar-09 09:33N 26°20' W 079°58'2019.9
2015-Mar-09 08:33N 26°40' W 079°57'2019.7
2015-Mar-09 07:33N 26°60' W 079°58'34817.3
2015-Mar-08 11:28N 32°47' W 079°55'6 6.7
2015-Mar-08 10:33N 32°53' W 079°58'1 1.3
2015-Mar-08 09:32N 32°54' W 079°57'0 0.0
2015-Mar-08 07:20N 32°54' W 079°57'49610.6
2015-Mar-06 08:26N 39°34' W 073°53'1617.9
2015-Mar-06 07:33N 39°49' W 073°51'3712.3
2015-Mar-06 04:33N 40°26' W 073°50'1110.7
2015-Mar-06 03:33N 40°33' W 074°01'9 8.5
2015-Mar-06 02:33N 40°39' W 074°09'2 0.7
2015-Mar-05 23:22N 40°41' W 074°09'0 0.0
2015-Mar-05 22:31N 40°41' W 074°09'0 0.0
2015-Mar-05 20:28N 40°41' W 074°09'0 0.0
2015-Mar-05 19:31N 40°41' W 074°09'0 0.0
2015-Mar-05 18:22N 40°41' W 074°09'0 0.0
2015-Mar-05 17:28N 40°41' W 074°09'0 0.0
2015-Mar-05 16:28N 40°41' W 074°09'0 0.0
2015-Mar-05 15:28N 40°41' W 074°09'0 0.0
2015-Mar-05 14:28N 40°41' W 074°09'0 0.0
2015-Mar-05 13:16N 40°41' W 074°09'0 0.0
2015-Mar-05 12:28N 40°41' W 074°09'0 0.0
2015-Mar-05 11:28N 40°41' W 074°09'0 0.0
2015-Mar-05 10:28N 40°41' W 074°09'0 0.0
2015-Mar-05 09:10N 40°41' W 074°09'0 0.0
2015-Mar-05 08:22N 40°41' W 074°09'0 0.0
2015-Mar-05 07:28N 40°41' W 074°09'0 0.0
2015-Mar-05 06:28N 40°41' W 074°09'0 0.0
2015-Mar-05 05:28N 40°41' W 074°09'0 0.0
2015-Mar-05 04:31N 40°41' W 074°09'0 0.0
2015-Mar-05 03:28N 40°41' W 074°09'0 0.0
2015-Mar-05 02:28N 40°41' W 074°09'0 0.0
2015-Mar-05 01:28N 40°41' W 074°09'0 0.0
2015-Mar-04 23:28N 40°41' W 074°09'0 0.0
2015-Mar-04 22:28N 40°41' W 074°09'0 0.0
2015-Mar-04 21:28N 40°41' W 074°09'0 0.0
2015-Mar-04 19:28N 40°41' W 074°09'0 0.0
2015-Mar-04 18:28N 40°41' W 074°09'0 0.0
2015-Mar-04 17:28N 40°41' W 074°09'1 1.0
2015-Mar-04 16:34N 40°41' W 074°08'3 2.6
2015-Mar-04 15:33N 40°39' W 074°06'9 8.6
2015-Mar-04 14:33N 40°31' W 074°00'11 8.9
2015-Mar-04 13:19N 40°28' W 073°46'3 4.0
2015-Mar-04 12:29N 40°29' W 073°43'3 2.7
2015-Mar-04 11:32N 40°31' W 073°40'0 0.0
2015-Mar-04 10:29N 40°31' W 073°40'0 0.1
2015-Mar-04 09:32N 40°31' W 073°40'0 0.0
2015-Mar-04 08:23N 40°31' W 073°40'0 0.0
2015-Mar-04 06:29N 40°31' W 073°40'0 0.0
2015-Mar-04 00:32N 40°31' W 073°40'0 0.0
2015-Mar-03 21:11N 40°31' W 073°40'0 0.0
2015-Mar-03 20:32N 40°31' W 073°40'0 0.0
2015-Mar-03 19:27N 40°31' W 073°40'0 0.0
2015-Mar-03 18:26N 40°31' W 073°40'0 0.0
2015-Mar-03 17:32N 40°31' W 073°40'0 0.0
2015-Mar-03 13:13N 40°31' W 073°40'0 0.1
2015-Mar-03 12:26N 40°31' W 073°40'8 8.7
2015-Mar-03 11:33N 40°24' W 073°45'  

Dump ship's entire track history